SAUDISAT 3

Last updated on July 6, 2021, 3:44 p.m. UTC

1 31118U 07012B   21187.13895014 -.00000011  00000-0  61788-5 0  9992
2 31118  97.9221 138.5898 0014272 215.0810 144.9457 14.69208462762305
UTC
Height (km)
Latitude
Longitude
Inclination
Orbital Period
UTC large
Height (km)
Speed (km/s)
/
Latitude / Longitude
Inclination (degrees)
Orbital Period (minutes)
Azimuth
Elevation
Range (km)
Doppler Factor
iOS Compass Heading
iOS Angle